Location: Oshawa
(43.9000°N, 78.8670°W)
Time: 13:52:14
(UTC-04:00)

Iridium 98 - Visible Passes

Search period start: 19 September 2014 00:00
Search period end: 29 September 2014 00:00
Orbit: 776 x 779 km, 86.4° (Epoch: 19 September)

Date Brightness Start Highest point End Pass type
(mag) Time Alt. Az. Time Alt. Az. Time Alt. Az.
19 Sep 8.7 05:35:15 10° ESE 05:38:27 17° ENE 05:41:39 10° NE visible
21 Sep 7.1 06:06:48 10° SSE 06:11:38 41° E 06:16:30 10° NNE visible
21 Sep 9.3 19:59:25 10° WNW 20:00:24 11° WNW 20:01:23 10° W visible
22 Sep 8.1 05:34:18 10° SE 05:38:20 23° E 05:42:24 10° NNE visible
23 Sep 8.7 05:02:50 10° ESE 05:05:10 13° ENE 05:07:30 10° NE visible
24 Sep 6.2 06:06:33 10° SSE 06:11:39 59° E 06:16:46 10° N visible
25 Sep 7.4 05:33:41 10° SE 05:38:16 33° E 05:42:53 10° NNE visible
26 Sep 8.3 05:01:30 10° ESE 05:05:01 19° ENE 05:08:34 10° NE visible
27 Sep 8.9 04:31:32 10° ENE 04:31:54 10° ENE 04:32:16 10° ENE visible
27 Sep 5.6 06:06:30 10° S 06:11:42 84° E 06:16:56 10° N visible
28 Sep 6.6 05:33:18 10° SSE 05:38:15 46° E 05:43:13 10° NNE visible
